When you browse on this site, cookies collect data to enhance your experience and personalize the content and advertising you see.
Visit our Privacy Policy to learn more. By continuing to use the site, you agree to this use of cookies and data.
  • In Slovakia
  • List of Countries
  • For 7 days
  • Water Temperature
  • Weather Map
  • Weather Widgets
  • user-avatar
    Login

    Hourly Weather Kandahar

    Today, 16 September, Monday

    Time Temperature Precipitation Wind Pressure Humidity
    00:00 +21°C° 0 mm 1 mps 672 mmHg 14%
    01:00 +20°C° 0 mm 1 mps 671 mmHg 15%
    02:00 +19°C° 0 mm 1 mps 671 mmHg 16%
    03:00 +18°C° 0 mm 1 mps 671 mmHg 17%
    04:00 +16°C° 0 mm 1 mps 671 mmHg 19%
    05:00 +19°C° 0 mm 1 mps 672 mmHg 17%
    06:00 +21°C° 0 mm 1 mps 673 mmHg 15%
    07:00 +23°C° 0 mm 1 mps 674 mmHg 14%
    08:00 +26°C° 0 mm 1 mps 674 mmHg 12%
    09:00 +28°C° 0 mm 1 mps 674 mmHg 11%
    10:00 +30°C° 0 mm 1 mps 675 mmHg 8%
    11:00 +31°C° 0 mm 2 mps 674 mmHg 7%
    12:00 +34°C° 0 mm 2 mps 674 mmHg 6%
    13:00 +36°C° 0 mm 2 mps 673 mmHg 5%
    14:00 +36°C° 0 mm 3 mps 673 mmHg 5%
    15:00 +37°C° 0 mm 3 mps 673 mmHg 5%
    16:00 +37°C° 0 mm 4 mps 672 mmHg 4%
    17:00 +34°C° 0 mm 4 mps 672 mmHg 6%
    18:00 +30°C° 0 mm 3 mps 671 mmHg 7%
    19:00 +26°C° 0 mm 3 mps 671 mmHg 9%
    20:00 +25°C° 0 mm 3 mps 671 mmHg 10%
    21:00 +24°C° 0 mm 2 mps 671 mmHg 11%
    22:00 +22°C° 0 mm 1 mps 671 mmHg 13%
    23:00 +21°C° 0 mm 1 mps 670 mmHg 13%

    Tomorrow, 17 September, Tuesday

    Time Temperature Precipitation Wind Pressure Humidity
    00:00 +20°C° 0 mm 1 mps 670 mmHg 14%
    01:00 +20°C° 0 mm 1 mps 670 mmHg 15%
    02:00 +19°C° 0 mm 1 mps 670 mmHg 15%
    03:00 +19°C° 0 mm 1 mps 670 mmHg 16%
    04:00 +18°C° 0 mm 1 mps 670 mmHg 16%
    05:00 +20°C° 0 mm 1 mps 671 mmHg 14%
    06:00 +23°C° 0 mm 1 mps 672 mmHg 12%
    07:00 +25°C° 0 mm 1 mps 673 mmHg 10%
    08:00 +27°C° 0 mm 1 mps 674 mmHg 9%
    09:00 +29°C° 0 mm 2 mps 674 mmHg 7%
    10:00 +32°C° 0 mm 2 mps 674 mmHg 6%
    11:00 +34°C° 0 mm 2 mps 674 mmHg 5%
    12:00 +35°C° 0 mm 1 mps 673 mmHg 5%
    13:00 +36°C° 0 mm 1 mps 673 mmHg 4%
    14:00 +36°C° 0 mm 1 mps 673 mmHg 4%
    15:00 +37°C° 0 mm 2 mps 673 mmHg 4%
    16:00 +38°C° 0 mm 2 mps 672 mmHg 4%
    17:00 +34°C° 0 mm 2 mps 672 mmHg 5%
    18:00 +30°C° 0 mm 2 mps 672 mmHg 7%
    19:00 +26°C° 0 mm 2 mps 671 mmHg 8%
    20:00 +25°C° 0 mm 2 mps 671 mmHg 9%
    21:00 +24°C° 0 mm 2 mps 671 mmHg 9%
    22:00 +23°C° 0 mm 2 mps 671 mmHg 10%
    23:00 +22°C° 0 mm 1 mps 671 mmHg 11%

    Day after tomorrow, 18 September, Wednesday

    Time Temperature Precipitation Wind Pressure Humidity
    00:00 +21°C° 0 mm 1 mps 671 mmHg 13%
    01:00 +20°C° 0 mm 1 mps 671 mmHg 14%
    02:00 +19°C° 0 mm 1 mps 670 mmHg 15%
    03:00 +16°C° 0 mm 0 mps 670 mmHg 16%
    04:00 +16°C° 0 mm 0 mps 670 mmHg 17%
    05:00 +19°C° 0 mm 0 mps 672 mmHg 14%
    06:00 +24°C° 0 mm 1 mps 673 mmHg 11%
    07:00 +27°C° 0 mm 1 mps 674 mmHg 8%
    08:00 +29°C° 0 mm 1 mps 675 mmHg 7%
    09:00 +31°C° 0 mm 1 mps 675 mmHg 6%
    10:00 +33°C° 0 mm 1 mps 676 mmHg 5%
    11:00 +36°C° 0 mm 2 mps 676 mmHg 4%
    12:00 +38°C° 0 mm 3 mps 675 mmHg 4%
    13:00 +40°C° 0 mm 4 mps 675 mmHg 3%
    14:00 +40°C° 0 mm 4 mps 675 mmHg 3%
    15:00 +40°C° 0 mm 5 mps 675 mmHg 3%
    16:00 +40°C° 0 mm 5 mps 675 mmHg 3%
    17:00 +36°C° 0 mm 5 mps 674 mmHg 4%
    18:00 +32°C° 0 mm 4 mps 674 mmHg 5%
    19:00 +28°C° 0 mm 4 mps 674 mmHg 6%
    20:00 +26°C° 0 mm 3 mps 673 mmHg 7%
    21:00 +24°C° 0 mm 2 mps 673 mmHg 8%
    22:00 +23°C° 0 mm 1 mps 673 mmHg 9%
    23:00 +22°C° 0 mm 1 mps 672 mmHg 10%

    19 September, Thursday

    Time Temperature Precipitation Wind Pressure Humidity
    00:00 +21°C° 0 mm 1 mps 672 mmHg 11%
    01:00 +19°C° 0 mm 0 mps 672 mmHg 12%
    02:00 +18°C° 0 mm 0 mps 672 mmHg 13%
    03:00 +17°C° 0 mm 0 mps 672 mmHg 13%
    04:00 +17°C° 0 mm 0 mps 671 mmHg 14%
    05:00 +20°C° 0 mm 0 mps 673 mmHg 12%
    06:00 +25°C° 0 mm 1 mps 674 mmHg 9%
    07:00 +27°C° 0 mm 1 mps 675 mmHg 7%
    08:00 +30°C° 0 mm 1 mps 675 mmHg 6%
    09:00 +32°C° 0 mm 1 mps 675 mmHg 5%
    10:00 +34°C° 0 mm 1 mps 676 mmHg 4%
    11:00 +35°C° 0 mm 1 mps 675 mmHg 4%
    12:00 +37°C° 0 mm 2 mps 675 mmHg 3%
    13:00 +39°C° 0 mm 2 mps 675 mmHg 3%
    14:00 +39°C° 0 mm 2 mps 674 mmHg 3%
    15:00 +39°C° 0 mm 3 mps 674 mmHg 3%
    16:00 +39°C° 0 mm 3 mps 674 mmHg 3%
    17:00 +36°C° 0 mm 3 mps 674 mmHg 3%
    18:00 +33°C° 0 mm 3 mps 673 mmHg 4%
    19:00 +28°C° 0 mm 3 mps 673 mmHg 4%
    20:00 +27°C° 0 mm 2 mps 672 mmHg 5%
    21:00 +25°C° 0 mm 2 mps 672 mmHg 6%
    22:00 +23°C° 0 mm 1 mps 672 mmHg 7%
    23:00 +22°C° 0 mm 1 mps 671 mmHg 7%

    20 September, Friday

    Time Temperature Precipitation Wind Pressure Humidity
    00:00 +20°C° 0 mm 0 mps 671 mmHg 7%
    01:00 +19°C° 0 mm 0 mps 670 mmHg 7%
    02:00 +19°C° 0 mm 0 mps 671 mmHg 8%
    03:00 +18°C° 0 mm 0 mps 671 mmHg 8%
    04:00 +18°C° 0 mm 0 mps 671 mmHg 8%
    05:00 +22°C° 0 mm 1 mps 672 mmHg 7%
    06:00 +25°C° 0 mm 2 mps 673 mmHg 6%
    07:00 +28°C° 0 mm 2 mps 674 mmHg 5%
    08:00 +30°C° 0 mm 2 mps 674 mmHg 4%
    09:00 +32°C° 0 mm 2 mps 675 mmHg 4%
    10:00 +35°C° 0 mm 2 mps 675 mmHg 3%
    11:00 +37°C° 0 mm 2 mps 675 mmHg 3%
    12:00 +38°C° 0 mm 2 mps 674 mmHg 3%
    13:00 +39°C° 0 mm 1 mps 674 mmHg 3%
    14:00 +39°C° 0 mm 2 mps 673 mmHg 3%
    15:00 +39°C° 0 mm 2 mps 673 mmHg 3%
    16:00 +39°C° 0 mm 2 mps 673 mmHg 3%
    17:00 +34°C° 0 mm 1 mps 672 mmHg 5%
    18:00 +30°C° 0 mm 1 mps 672 mmHg 6%
    19:00 +24°C° 0 mm 0 mps 671 mmHg 8%
    20:00 +23°C° 0 mm 0 mps 671 mmHg 8%
    21:00 +23°C° 0 mm 0 mps 671 mmHg 9%
    22:00 +22°C° 0 mm 0 mps 671 mmHg 9%
    23:00 +24°C° 0 mm 1 mps 671 mmHg 9%

    21 September, Saturday

    Time Temperature Precipitation Wind Pressure Humidity
    00:00 +23°C° 0 mm 1 mps 670 mmHg 9%
    01:00 +23°C° 0 mm 1 mps 670 mmHg 10%
    02:00 +22°C° 0 mm 1 mps 670 mmHg 11%
    03:00 +22°C° 0 mm 1 mps 670 mmHg 12%
    04:00 +21°C° 0 mm 1 mps 670 mmHg 13%
    05:00 +24°C° 0 mm 1 mps 671 mmHg 11%
    06:00 +27°C° 0 mm 1 mps 672 mmHg 9%
    07:00 +30°C° 0 mm 1 mps 674 mmHg 6%
    08:00 +32°C° 0 mm 1 mps 674 mmHg 6%
    09:00 +35°C° 0 mm 2 mps 674 mmHg 6%
    10:00 +37°C° 0 mm 2 mps 675 mmHg 5%
    11:00 +38°C° 0 mm 2 mps 674 mmHg 5%
    12:00 +39°C° 0 mm 2 mps 674 mmHg 4%
    13:00 +40°C° 0 mm 2 mps 674 mmHg 4%
    14:00 +40°C° 0 mm 2 mps 673 mmHg 4%
    15:00 +40°C° 0 mm 2 mps 673 mmHg 4%
    16:00 +40°C° 0 mm 2 mps 673 mmHg 4%
    17:00 +37°C° 0 mm 2 mps 673 mmHg 5%
    18:00 +32°C° 0 mm 2 mps 672 mmHg 6%
    19:00 +29°C° 0 mm 2 mps 672 mmHg 8%
    20:00 +28°C° 0 mm 2 mps 672 mmHg 8%
    21:00 +27°C° 0 mm 2 mps 672 mmHg 9%
    22:00 +25°C° 0 mm 1 mps 672 mmHg 10%
    23:00 +25°C° 0 mm 1 mps 671 mmHg 10%
    Show more